Flag for Italy Weather past 2 weeks in Venice, Italy

Now
39 °F

Sunny.


Feels Like: 32 °F
Forecast: 27 / 40 °F
Wind: 13 mph from Northeast

Location: Venice / Tessera

Current Time: Jan 31, 2015 at 11:37:12 AM

Latest Report: Jan 31, 2015 at 10:50 AM


Visibility: 10 mi

Pressure: 29.12 "Hg

Humidity: 75%

Dew point: 32 °F

Location of VeniceLocation

Historic Weather in Venice — Graph

°F

Venice temperature yesterday

Maximum temperature yesterday: 41 °F (at 11:20 AM)
Minimum temperature yesterday: 37 °F (at 12:50 AM)
Average temperature yesterday: 39 °F

Past Weeks' High & Low Weather Summary

 TemperatureHumidityPressure
High54 °F (Jan 17, 7:20 AM)100% (Jan 18, 2:50 AM)30.27 "Hg (Jan 18, 2:50 AM)
Low28 °F (Jan 28, 5:20 AM)40% (Jan 26, 1:50 PM)28.77 "Hg (Jan 30, 12:50 PM)
Average42 °F78%29.82 "Hg
* Reported Jan 16 10:20 AM — Jan 31 10:20 AM, Venice, Weather by CustomWeather, © 2014

Note: Actual official high and low records may vary slightly from our data, if they occured in-between our weather recording intervals... More about our weather records

Advertising

Venice weather history for previous 24 hours

 ConditionsComfort  
Time TempWeatherWind HumidityBarometerVisibility
10:20 AM
Jan 31
39 °FSunny.13 mph75%29.12 "Hg10 mi
9:50 AM37 °FSunny.9 mph75%29.12 "Hg10 mi
9:20 AM36 °FClear.7 mph81%29.12 "Hg4 mi
8:50 AM34 °FClear.8 mph81%29.12 "Hg4 mi
8:20 AM34 °FClear.9 mph81%29.09 "Hg5 mi
7:50 AM34 °FClear.7 mph81%29.09 "Hg5 mi
7:20 AM32 °FClear.8 mph87%29.09 "Hg10 mi
6:50 AM32 °FClear.9 mph87%29.09 "Hg10 mi
6:20 AM32 °FClear.5 mph87%29.06 "Hg10 mi
5:50 AM32 °FClear.7 mph87%29.06 "Hg10 mi
5:20 AM34 °FClear.5 mph81%29.06 "Hg10 mi
4:50 AM34 °FClear.2 mph81%29.06 "Hg10 mi
3:50 AM34 °FClear.9 mph87%29.03 "Hg10 mi
3:20 AM32 °FClear.5 mph80%29.03 "Hg10 mi
2:50 AM36 °FClear.8 mph81%29.03 "Hg10 mi
2:20 AM34 °FClear.8 mph81%29.03 "Hg10 mi
1:50 AM36 °FClear.2 mph75%29.00 "Hg10 mi
1:20 AM39 °FClear.5 mph75%29.00 "Hg10 mi
12:50 AM39 °FClear.8 mph75%29.00 "Hg10 mi
12:20 AM39 °FClear.6 mph75%29.00 "Hg10 mi
11:50 PM
Jan 30
39 °FClear.7 mph81%28.97 "Hg10 mi
11:20 PM39 °FClear.7 mph81%28.97 "Hg10 mi
10:50 PM39 °FClear.7 mph81%28.97 "Hg10 mi
10:20 PM39 °FClear.8 mph81%28.97 "Hg10 mi
9:50 PM39 °FClear.8 mph81%28.94 "Hg10 mi
9:20 PM37 °FClear.7 mph81%28.94 "Hg10 mi
8:50 PM39 °FClear.5 mph75%28.94 "Hg10 mi
8:20 PM39 °FPassing clouds.6 mph75%28.91 "HgN/A
7:50 PM39 °FPassing clouds.7 mph81%28.91 "HgN/A
7:20 PM39 °FPassing clouds.6 mph81%28.91 "HgN/A
6:50 PM39 °FPassing clouds.6 mph75%28.88 "HgN/A
6:20 PM39 °FPassing clouds.8 mph75%28.88 "HgN/A
5:50 PM39 °FPassing clouds.8 mph75%28.88 "HgN/A
5:20 PM41 °FPartly cloudy.5 mph76%28.85 "HgN/A
4:50 PM41 °FBroken clouds.10 mph76%28.82 "HgN/A
4:20 PM39 °FBroken clouds.12 mph87%28.82 "HgN/A
3:50 PM39 °FPartly sunny.6 mph81%28.82 "HgN/A
3:20 PM39 °FLight rain. Partly sunny.16 mph81%28.82 "HgN/A
2:50 PM37 °FLight rain. Partly sunny.17 mph87%28.82 "HgN/A
2:20 PM39 °FRain. Broken clouds.9 mph87%28.80 "Hg2 mi
1:50 PM41 °FPartly sunny.7 mph81%28.80 "HgN/A
1:20 PM41 °FBroken clouds.5 mph81%28.77 "HgN/A
12:50 PM41 °FBroken clouds.9 mph81%28.77 "HgN/A
12:20 PM41 °FBroken clouds.8 mph81%28.80 "HgN/A
11:50 AM41 °FBroken clouds.9 mph81%28.80 "HgN/A
11:20 AM41 °FBroken clouds.8 mph81%28.80 "HgN/A
Weather by CustomWeather, © 2014

See weather overviewHow to use our weather pages